Location: Handeloh
(53.2500°N, 9.8330°E)
Time: 22:12:33
(UTC+01:00)

Tiros 1 despin weight - All Passes

Search period start: 18 November 2019 00:00
Search period end: 28 November 2019 00:00
Orbit: 594 x 642 km, 48.2° (Epoch: 17 November)

Date Brightness Start Highest point End Pass type
(mag) Time Alt. Az. Time Alt. Az. Time Alt. Az.
18 Nov - 13:22:54 10° SSE 13:24:52 13° SE 13:26:49 10° ESE daylight
18 Nov - 15:01:31 10° SW 15:05:27 32° SSE 15:09:27 10° E daylight
18 Nov - 16:42:15 10° WSW 16:46:29 44° S 16:50:47 10° ESE daylight
18 Nov - 18:23:36 10° W 18:27:31 30° SSW 18:31:30 10° SE visible
18 Nov - 20:06:31 10° WSW 20:08:07 12° SW 20:09:43 10° SSW visible
19 Nov - 13:37:49 10° SSW 13:40:59 20° SSE 13:44:11 10° ESE daylight
19 Nov - 15:17:41 10° WSW 15:21:48 39° SSE 15:26:00 10° E daylight
19 Nov - 16:58:43 10° WSW 17:02:55 41° S 17:07:09 10° ESE visible
19 Nov - 18:40:18 10° W 18:43:48 22° SSW 18:47:20 10° SSE visible
20 Nov - 13:53:30 10° SW 13:57:14 27° SSE 14:01:00 10° E daylight
20 Nov - 15:34:00 10° WSW 15:38:12 44° S 15:42:28 10° ESE daylight
20 Nov - 17:15:13 10° W 17:19:17 35° SSW 17:23:23 10° SE visible
20 Nov - 18:57:23 10° WSW 18:59:59 15° SW 19:02:37 10° S visible
21 Nov - 12:30:15 10° S 12:32:51 15° SE 12:35:28 10° ESE daylight
21 Nov - 14:09:31 10° SW 14:13:33 35° SSE 14:17:37 10° E daylight
21 Nov - 15:50:25 10° WSW 15:54:37 43° S 15:58:53 10° ESE daylight
21 Nov - 17:31:50 10° W 17:35:36 27° SSW 17:39:23 10° SSE visible
22 Nov - 12:45:34 10° SSW 12:49:02 23° SSE 12:52:31 10° E daylight
22 Nov - 14:25:46 10° WSW 14:29:55 41° S 14:34:08 10° ESE daylight
22 Nov - 16:06:53 10° W 16:11:01 39° SSW 16:15:11 10° ESE daylight
22 Nov - 17:48:40 10° WSW 17:51:50 19° SSW 17:55:01 10° SSE visible
23 Nov - 11:23:11 10° SSE 11:24:45 12° SE 11:26:19 10° ESE daylight
23 Nov - 13:01:26 10° SW 13:05:18 31° SSE 13:09:13 10° E daylight
23 Nov - 14:42:07 10° WSW 14:46:20 44° S 14:50:35 10° ESE daylight
23 Nov - 16:23:26 10° W 16:27:22 31° SSW 16:31:20 10° SE daylight
23 Nov - 18:06:07 10° WSW 18:07:59 12° SW 18:09:51 10° SSW visible
24 Nov - 11:37:50 10° SSW 11:40:52 18° SSE 11:43:55 10° ESE daylight
24 Nov - 13:17:34 10° SW 13:21:39 38° SSE 13:25:46 10° E daylight
24 Nov - 14:58:34 10° WSW 15:02:44 42° S 15:06:57 10° ESE daylight
24 Nov - 16:40:07 10° W 16:43:39 23° SSW 16:47:12 10° SSE daylight
25 Nov - 11:53:25 10° SSW 11:57:05 26° SSE 12:00:46 10° E daylight
25 Nov - 13:33:51 10° WSW 13:38:03 43° S 13:42:15 10° ESE daylight
25 Nov - 15:15:04 10° W 15:19:07 36° SSW 15:23:12 10° SE daylight
25 Nov - 16:57:07 10° WSW 16:59:51 16° SW 17:02:36 10° S visible
26 Nov - 10:30:21 10° S 10:32:44 14° SE 10:35:07 10° ESE daylight
26 Nov - 12:09:24 10° SW 12:13:24 34° SSE 12:17:24 10° E daylight
26 Nov - 13:50:15 10° WSW 13:54:27 43° S 13:58:40 10° ESE daylight
26 Nov - 15:31:40 10° W 15:35:26 28° SSW 15:39:14 10° SE daylight
27 Nov - 10:45:32 10° SSW 10:48:54 21° SSE 10:52:15 10° ESE daylight
27 Nov - 12:25:37 10° WSW 12:29:46 40° S 12:33:55 10° ESE daylight
27 Nov - 14:06:43 10° W 14:10:50 39° S 14:15:00 10° ESE daylight
27 Nov - 15:48:27 10° WSW 15:51:41 20° SSW 15:54:57 10° SSE daylight
